[[{"header":{"parameterUnit":"m.s-1","parameterCategory":1,"la1":30.2991,"la2":30.254,"lo1":-89.0895,"lo2":-89.0444,"dy":0.0017,"dx":0.0017,"nx":28,"ny":28,"refTime":"2023-10-27T03:00:00:Z","depth":0,"parameterNumber":2,"parameterNumberName":"U-component_of_WINDS"},"data":[0,0,0,0,0,0,0,0,0,0,0,0,0,0,0,0,0,0,0,0,0,0,0,0,0,0,0,0,0,0,0,0,0,0,0,0,0,0,0,0,0,0,0,0,0,0,0,0,0,0,0,0,0,0,0,0,0,0,-5.2808,-5.2809,0,-5.2841,-5.2842,-5.2842,-5.2756,-5.2753,-5.275,-5.2748,-5.278,-5.2783,-5.2787,0,0,0,0,0,0,0,0,0,0,0,0,0,-5.2672,-5.2675,-5.2808,-5.2809,-5.2809,-5.2841,-5.2842,-5.2842,-5.2756,-5.2753,-5.275,-5.2747,-5.2779,-5.2783,-5.2787,0,0,0,0,0,0,0,0,0,0,0,0,0,-5.2721,-5.2676,-5.2808,-5.277,-5.2767,-5.2841,-5.2842,-5.2842,-5.2757,-5.2753,-5.2749,-5.2745,-5.2778,-5.2783,-5.2788,-5.29,0,0,-5.2803,-5.2805,0,0,0,0,0,0,0,0,-5.2718,-5.2726,-5.2775,-5.2773,-5.277,-5.279,-5.2805,-5.2861,-5.2758,-5.2761,-5.2748,-5.2743,-5.2787,-5.2791,-5.2806,-5.2901,-5.2902,-5.2804,-5.2807,-5.2809,-5.281,0,0,0,0,0,0,0,-5.2715,-5.2724,-5.2821,-5.2776,-5.2773,-5.2752,-5.2754,-5.2816,-5.2796,-5.276,-5.2754,-5.2759,-5.2784,-5.2801,-5.2806,-5.2903,-5.2803,-5.2808,-5.2811,-5.2813,-5.3094,-5.3098,0,0,0,0,0,0,-5.2716,-5.2721,-5.282,-5.2822,-5.2733,-5.2758,-5.276,-5.2788,-5.2795,-5.2792,-5.2763,-5.2755,-5.2794,-5.28,-5.2807,-5.2939,-5.2809,-5.2813,-5.2816,-5.309,-5.3095,-5.31,0,0,0,0,0,0,-5.2714,-5.2726,-5.2819,-5.277,-5.2781,-5.2764,-5.2796,-5.2791,-5.2807,-5.2797,-5.2793,-5.2783,-5.2792,-5.28,-5.2878,-5.2939,-5.2816,-5.282,-5.3084,-5.3091,-5.3097,-5.3203,0,0,0,0,0,0,-5.271,-5.2725,-5.2767,-5.2772,-5.2784,-5.2889,-5.28,-5.2794,-5.2816,-5.2807,-5.2815,-5.2813,-5.2789,-5.2871,-5.2883,-5.2943,-5.2824,-5.3079,-5.3088,-5.3095,-5.3194,-5.3213,-5.3229,0,0,0,0,0,-5.2705,-5.2795,-5.277,-5.2782,-5.2835,-5.2893,-5.2899,-5.2871,-5.2822,-5.2864,-5.2858,-5.2812,-5.2931,-5.2879,-5.2892,-5.2955,-5.3075,-5.3085,-5.3095,-5.3187,-5.3209,-5.3228,0,0,0,0,0,0,-5.2796,-5.2794,-5.2766,-5.286,-5.2878,-5.2878,-5.293,-5.2895,-5.2926,-5.2916,-5.2879,-5.2882,-5.2967,-5.2969,-5.2912,-5.3065,-5.2994,-5.3007,-5.306,-5.3081,-5.3098,-5.3095,-5.2828,0,0,0,0,0,-5.2827,-5.2874,-5.287,-5.2953,-5.2964,-5.2946,-5.297,-5.2947,-5.2963,-5.2969,-5.2969,-5.2986,-5.3027,-5.3055,-5.3092,-5.3196,-5.3197,-5.3246,-5.3263,-5.3277,-5.3288,-5.3344,-5.3366,-5.3133,-5.3133,-5.3132,0,0,-5.2891,-5.2896,-5.2928,-5.2972,-5.2982,-5.3032,-5.2952,-5.3007,-5.3044,-5.2977,-5.3051,-5.3052,-5.3069,-5.3161,-5.3201,-5.3166,-5.3354,-5.329,-5.3301,-5.3304,-5.3357,-5.3379,-5.3399,-5.3139,-5.3138,-5.3137,0,0,-5.3032,-5.3042,-5.3112,-5.3126,-5.3143,-5.3132,-5.3149,-5.3156,-5.3155,-5.3229,-5.3181,-5.3224,-5.3295,-5.331,-5.3327,-5.348,-5.3439,-5.3493,-5.3582,-5.3637,-5.3655,-5.3671,-5.3726,-5.3746,-5.3505,-5.3505,-5.3505,0,-5.3109,-5.3182,-5.3153,-5.3212,-5.3233,-5.3178,-5.325,-5.3264,-5.3293,-5.3309,-5.327,-5.336,-5.3367,-5.3462,-5.35,-5.3516,-5.3535,-5.349,-5.3655,-5.3671,-5.3686,-5.3737,-5.3757,-5.3511,-5.351,-5.351,-5.3509,0,-5.3276,-5.3328,-5.3383,-5.3414,-5.3442,-5.3507,-5.3488,-5.352,-5.3497,-5.349,-5.3567,-5.3575,-5.3613,-5.3635,-5.3611,-5.3728,-5.3705,-5.3662,-5.3589,-5.3715,-5.3762,-5.3782,-5.352,-5.3518,-5.3516,-5.3514,0,0,-5.347,-5.3488,-5.3508,-5.3523,-5.3541,-5.358,-5.3645,-5.3684,-5.3712,-5.3736,-5.3788,-5.3853,-5.3813,-5.3832,-5.3811,-5.386,-5.3981,-5.381,-5.381,-5.384,-5.411,-5.4142,-5.4165,-5.3956,-5.396,-5.3962,-5.4108,0,-5.361,-5.3719,-5.3697,-5.3805,-5.3853,-5.3804,-5.386,-5.3877,-5.3874,-5.3915,-5.3911,-5.3957,-5.3901,-5.3913,-5.3959,-5.3956,-5.4034,-5.3946,-5.4004,-5.4006,-5.3999,-5.419,-5.4222,-5.4359,-5.4127,-5.413,-5.4132,0,-5.3785,-5.3817,-5.393,-5.3943,-5.3963,-5.4013,-5.4049,-5.4089,-5.4109,-5.4103,-5.4127,-5.4097,-5.4162,-5.4092,-5.4181,-5.4121,-5.4145,-5.4147,-5.4152,-5.4154,-5.4075,-5.4196,-5.4402,-5.4423,-5.4161,-5.4159,-5.4157,0,-5.3915,-5.3987,-5.4064,-5.4078,-5.4095,-5.4132,-5.4141,-5.4157,-5.4184,-5.4215,-5.4232,-5.4271,-5.4291,-5.4323,-5.4305,-5.4255,-5.4397,-5.4325,-5.4394,-5.4394,-5.4423,-5.4421,-5.4635,-5.4442,-5.4442,-5.4441,-5.4441,0,-5.4071,-5.4142,-5.4123,-5.417,-5.4249,-5.4224,-5.4303,-5.4306,-5.4322,-5.4369,-5.433,-5.4375,-5.435,-5.4394,-5.4381,-5.4457,-5.4467,-5.4464,-5.4459,-5.4466,-5.4466,-5.4479,-5.4468,-5.4447,-5.4446,-5.4445,-5.4444,0,-5.4228,-5.4218,-5.4299,-5.431,-5.4315,-5.4372,-5.4382,-5.4426,-5.4422,-5.4483,-5.4496,-5.4489,-5.4539,-5.4525,-5.4579,-5.457,-5.4667,-5.4651,-5.466,-5.4655,-5.4724,-5.4718,-5.4952,-5.4981,-5.4771,-5.4773,-5.4775,0,-5.4327,-5.438,-5.4399,-5.4428,-5.4441,-5.4489,-5.4516,-5.4495,-5.4525,-5.4554,-5.4596,-5.4643,-5.4679,-5.4762,-5.4761,-5.4803,-5.4787,-5.4867,-5.4793,-5.4799,-5.4787,-5.4783,-5.4789,-5.488,-5.4883,-5.4885,-5.4886,0,-5.4504,-5.4497,-5.4538,-5.4579,-5.4612,-5.4643,-5.467,-5.4696,-5.4678,-5.4714,-5.4765,-5.4794,-5.4851,-5.4898,-5.4937,-5.4947,-5.4914,-5.491,-5.4928,-5.4935,-5.4937,-5.4936,-5.4698,-5.4904,-5.4902,-5.4901,-5.49,-5.4899,-5.4633,-5.468,-5.47,-5.4748,-5.4767,-5.4794,-5.4837,-5.484,-5.4882,-5.4927,-5.4913,-5.4972,-5.4994,-5.5044,-5.5059,-5.5105,-5.5075,-5.5101,-5.5107,-5.5113,-5.5122,-5.4933,-5.5112,-5.5112,-5.5111,-5.5111,-5.5111,0,-5.4807,-5.4819,-5.4864,-5.4904,-5.4942,-5.491,-5.494,-5.4973,-5.5026,-5.505,-5.5087,-5.5148,-5.5195,-5.52,-5.5245,-5.5281,-5.5267,-5.5293,-5.5289,-5.5292,-5.5146,-5.5126,-5.5304,-5.5304,-5.5304,-5.5304,-5.5304,-5.5304,-5.4902,-5.4979,-5.4976,-5.5062,-5.5074,-5.5132,-5.5152,-5.5177,-5.5196,-5.5266,-5.5305,-5.5309,-5.5326,-5.5372,-5.5414,-5.5414,-5.5432,-5.5464,-5.5459,-5.5322,-5.5302,-5.5284,-5.5264,-5.5468,-5.5469,-5.56,-5.5601,-5.5602]},{"header":{"parameterUnit":"m.s-1","parameterCategory":1,"la1":30.2991,"la2":30.254,"lo1":-89.0895,"lo2":-89.0444,"dy":0.0017,"dx":0.0017,"nx":28,"ny":28,"refTime":"2023-10-27T03:00:00:Z","depth":0,"parameterNumber":3,"parameterNumberName":"V-component_of_WINDS"},"data":[0,0,0,0,0,0,0,0,0,0,0,0,0,0,0,0,0,0,0,0,0,0,0,0,0,0,0,0,0,0,0,0,0,0,0,0,0,0,0,0,0,0,0,0,0,0,0,0,0,0,0,0,0,0,0,0,0,0,1.7619,1.7619,0,1.766,1.7661,1.7661,1.7682,1.7683,1.7683,1.7683,1.7722,1.7723,1.7724,0,0,0,0,0,0,0,0,0,0,0,0,0,1.7555,1.7556,1.7618,1.7619,1.762,1.766,1.7661,1.7661,1.7682,1.7683,1.7683,1.7683,1.7721,1.7723,1.7724,0,0,0,0,0,0,0,0,0,0,0,0,0,1.7588,1.7557,1.7618,1.7635,1.7637,1.766,1.7661,1.7661,1.7682,1.7683,1.7683,1.7683,1.7721,1.7722,1.7724,1.7733,0,0,1.7729,1.7729,0,0,0,0,0,0,0,0,1.7587,1.7591,1.7632,1.7634,1.7636,1.7666,1.7653,1.7685,1.7682,1.7665,1.7683,1.7683,1.7703,1.7706,1.7714,1.7734,1.7736,1.7729,1.773,1.773,1.7731,0,0,0,0,0,0,0,1.7584,1.7589,1.7635,1.7633,1.7635,1.764,1.7645,1.7659,1.7683,1.7667,1.7668,1.7673,1.7704,1.7712,1.7715,1.7737,1.7729,1.773,1.7731,1.7732,1.7769,1.7769,0,0,0,0,0,0,1.758,1.7587,1.7634,1.7636,1.7611,1.7641,1.7646,1.7656,1.7683,1.7687,1.7673,1.7674,1.7709,1.7713,1.7716,1.7729,1.773,1.7732,1.7733,1.7769,1.7769,1.7769,0,0,0,0,0,0,1.7578,1.7584,1.7632,1.7612,1.7619,1.7642,1.7653,1.7657,1.7665,1.7688,1.7692,1.7677,1.771,1.7714,1.7729,1.7731,1.7732,1.7734,1.7769,1.7769,1.7769,1.7755,0,0,0,0,0,0,1.7576,1.7583,1.7587,1.7612,1.762,1.7644,1.7653,1.7658,1.7668,1.767,1.7693,1.7697,1.771,1.7727,1.7731,1.7733,1.7735,1.7769,1.7769,1.7769,1.7755,1.7754,1.7754,0,0,0,0,0,1.7574,1.758,1.7587,1.7592,1.7625,1.7645,1.7649,1.7665,1.7668,1.7672,1.7687,1.7696,1.773,1.7728,1.7733,1.7736,1.7768,1.7769,1.7769,1.7756,1.7755,1.7754,0,0,0,0,0,0,1.7551,1.7583,1.7591,1.7605,1.7623,1.7648,1.7653,1.7663,1.7679,1.7679,1.7698,1.7703,1.7717,1.7728,1.7725,1.7746,1.775,1.7751,1.7739,1.7738,1.7737,1.7734,1.7736,0,0,0,0,0,1.7549,1.7563,1.7589,1.7599,1.7608,1.7629,1.7638,1.765,1.7668,1.7674,1.769,1.7706,1.7721,1.773,1.7745,1.7757,1.7763,1.7762,1.7761,1.776,1.7761,1.777,1.777,1.7769,1.7769,1.7769,0,0,1.7542,1.7561,1.7568,1.7595,1.761,1.7624,1.7635,1.7648,1.7659,1.7676,1.7692,1.7704,1.7724,1.7738,1.7745,1.7748,1.7763,1.7761,1.776,1.7761,1.777,1.777,1.777,1.777,1.7769,1.7769,0,0,1.7537,1.7553,1.7564,1.7579,1.7602,1.7617,1.7619,1.7644,1.7654,1.767,1.7684,1.7697,1.7721,1.7735,1.7745,1.7749,1.7758,1.7753,1.7749,1.7758,1.7758,1.7758,1.776,1.7761,1.7754,1.7754,1.7754,0,1.7525,1.7548,1.7568,1.7582,1.7594,1.7612,1.7624,1.7637,1.7663,1.767,1.7673,1.7706,1.772,1.7739,1.774,1.7748,1.7752,1.775,1.7756,1.7757,1.7757,1.776,1.776,1.7753,1.7753,1.7753,1.7753,0,1.7534,1.7549,1.7555,1.7582,1.7595,1.7607,1.7629,1.7639,1.7651,1.7665,1.7682,1.7701,1.772,1.7725,1.7735,1.7746,1.7747,1.7753,1.7757,1.7756,1.7759,1.776,1.7752,1.7752,1.7753,1.7753,0,0,1.7514,1.7554,1.7556,1.7569,1.7597,1.7609,1.7623,1.7644,1.7653,1.7671,1.7683,1.7705,1.7711,1.7723,1.7735,1.7742,1.7746,1.7748,1.7748,1.7747,1.776,1.7756,1.7757,1.7752,1.7753,1.7753,1.7759,0,1.7513,1.7541,1.756,1.758,1.7595,1.7614,1.7626,1.7645,1.7659,1.7674,1.7689,1.7705,1.7712,1.7719,1.7728,1.7744,1.7749,1.7744,1.7764,1.7764,1.7759,1.7758,1.7753,1.7757,1.776,1.776,1.776,0,1.7516,1.7536,1.7557,1.7586,1.7593,1.7604,1.7626,1.764,1.7662,1.7672,1.7686,1.7699,1.7715,1.7719,1.7741,1.7737,1.7746,1.7756,1.7756,1.7759,1.7762,1.776,1.7759,1.776,1.7762,1.7762,1.7762,0,1.75,1.7532,1.755,1.7561,1.7594,1.7602,1.7616,1.7638,1.765,1.7669,1.7677,1.7697,1.7708,1.7723,1.7741,1.7742,1.7762,1.7766,1.777,1.777,1.7773,1.7772,1.7774,1.7779,1.7779,1.7779,1.7779,0,1.7498,1.7511,1.7544,1.7555,1.757,1.7593,1.7607,1.7622,1.7642,1.7656,1.7673,1.7686,1.7709,1.7725,1.7739,1.7756,1.776,1.7769,1.7772,1.7767,1.7766,1.7774,1.7774,1.7779,1.7779,1.7779,1.7779,0,1.7483,1.7505,1.7526,1.7558,1.7566,1.7576,1.7602,1.7614,1.763,1.7648,1.7653,1.7679,1.7698,1.7718,1.7743,1.7753,1.777,1.7775,1.7763,1.7765,1.7768,1.7768,1.7774,1.7777,1.778,1.778,1.778,0,1.7479,1.749,1.7524,1.7536,1.755,1.7568,1.7582,1.7605,1.7618,1.7645,1.7653,1.7674,1.7692,1.7722,1.7742,1.7763,1.7768,1.7769,1.7771,1.7766,1.7769,1.7768,1.777,1.7768,1.7768,1.7768,1.7768,0,1.7472,1.7484,1.7503,1.7527,1.7543,1.7563,1.7583,1.7591,1.7618,1.7632,1.7654,1.7668,1.7696,1.7717,1.774,1.7753,1.7765,1.7767,1.7769,1.7764,1.7758,1.7762,1.7761,1.7767,1.7767,1.7767,1.7767,1.7767,1.7463,1.7474,1.7501,1.7522,1.7541,1.756,1.7573,1.7592,1.7611,1.7637,1.7649,1.767,1.7693,1.7726,1.774,1.7757,1.776,1.7763,1.7763,1.7764,1.7763,1.7755,1.7761,1.7761,1.7761,1.7761,1.7761,0,1.7457,1.7476,1.7496,1.7525,1.7542,1.7554,1.7578,1.7591,1.761,1.7632,1.765,1.7676,1.7697,1.772,1.7742,1.7751,1.7757,1.7756,1.7756,1.7759,1.7759,1.7755,1.7751,1.7751,1.7751,1.7751,1.7751,1.7751,1.7456,1.7477,1.7492,1.7522,1.754,1.7563,1.7576,1.7593,1.7611,1.7639,1.7658,1.7673,1.7696,1.772,1.774,1.7746,1.7754,1.7752,1.7759,1.7758,1.7759,1.776,1.7756,1.7753,1.7753,1.7759,1.7759,1.7759]}]]